Location: Caltech
(34.1382°N, 118.1253°W)
Time: 07:33:01
(UTC-08:00)

NOSS 3-2 (A) - Visible Passes

Search period start: 23 November 2014 00:00
Search period end: 03 December 2014 00:00
Orbit: 940 x 1269 km, 63.4° (Epoch: 13 November)

Date Brightness Start Highest point End Pass type
(mag) Time Alt. Az. Time Alt. Az. Time Alt. Az.
23 Nov 4.0 17:44:34 10° NNW 17:51:57 58° NE 17:59:41 10° SE visible
23 Nov 5.7 19:36:20 10° NW 19:42:32 28° WSW 19:48:55 10° SSW visible
24 Nov 4.4 16:59:33 10° NNW 17:06:24 38° NE 17:13:34 10° ESE visible
24 Nov 5.0 18:50:19 10° NW 18:57:26 46° WSW 19:04:51 10° S visible
25 Nov 4.2 18:04:43 10° NW 18:12:14 73° WSW 18:20:05 10° SSE visible
25 Nov 6.7 20:00:19 10° W 20:02:09 11° WSW 20:04:01 10° WSW visible
26 Nov 4.0 17:19:23 10° NNW 17:26:54 74° ENE 17:34:47 10° SE visible
26 Nov 6.2 19:11:54 10° WNW 19:17:15 21° WSW 19:22:43 10° SSW visible
27 Nov 5.6 18:25:31 10° NW 18:32:13 35° WSW 18:39:10 10° S visible
28 Nov 4.8 17:39:43 10° NW 17:47:05 57° WSW 17:54:45 10° S visible
29 Nov 6.8 18:47:55 10° WNW 18:51:56 15° WSW 18:56:02 10° SW visible
30 Nov 6.2 18:00:53 10° NW 18:06:58 27° WSW 18:13:15 10° SSW visible
01 Dec 6.2 05:59:07 10° SSE 06:03:59 25° ESE 06:09:01 10° ENE visible
01 Dec 5.4 17:14:49 10° NW 17:21:53 44° WSW 17:29:14 10° S visible
02 Dec 6.8 05:16:30 10° SE 05:19:07 13° ESE 05:21:46 10° E visible
02 Dec 7.4 18:25:36 10° W 18:26:35 10° WSW 18:27:34 10° WSW visible
